#timestamp,LO_Frequency,Hit,StdDev 
1662818415.5,286046999.4,P
1662818435.3,286046998.4,N
1662818455.2,286047000.7,N
1662818475.0,286046998.9,N
1662818475.9,286046998.9,N
1662818495.8,286046999.5,N
1662818515.6,286046999.2,N
1662818535.4,286046999.6,N
1662818555.3,286046996.5,N
1662818575.1,286046996.7,N
1662818595.8,286046997.2,N
1662818615.7,286046996.6,N
1662818635.5,286046997.0,N
1662818655.4,286046997.7,N
1662818675.2,286046995.1,Y
1662818695.0,286046996.7,P
1662818695.9,286046996.7,P
1662818715.8,286046996.9,P
1662818735.6,286046998.8,N
1662818755.5,286046998.9,N
1662818775.3,286046997.0,Y
1662818795.1,286047001.1,P
1662818815.9,286047000.3,N
1662818835.7,286046999.7,N
1662818855.6,286047000.3,N
1662818875.4,286046998.1,N
1662818895.2,286046998.1,N
1662818915.1,286047000.7,N
1662818916.0,286047000.7,N
1662818935.8,286047000.6,N
1662818955.6,286047000.3,N
1662818975.5,286047002.5,N
1662818995.3,286047002.4,N
1662819015.1,286047000.1,N
1662819035.9,286047002.8,N
1662819055.7,286047001.0,N
1662819075.6,286046998.3,N
1662819095.4,286046998.4,N
1662819115.2,286046998.7,N
1662819135.1,286046998.3,N
1662819136.0,286046998.3,N
1662819155.8,286046998.9,N
1662819175.7,286046998.2,N
1662819195.5,286046998.2,N
1662819215.3,286046998.5,N
1662819235.2,286046998.3,N
1662819255.9,286046998.2,N
1662819275.7,286046998.2,N
1662819295.6,286047001.2,N
1662819315.4,286046998.6,N
1662819335.3,286046998.3,N
1662819355.1,286047000.6,N
1662819356.0,286047000.6,N
1662819375.8,286047000.5,N
1662819395.7,286046998.2,N
1662819415.5,286047000.5,N
1662819435.3,286046998.1,N
1662819455.2,286047001.1,N
1662819475.0,286047000.1,N
1662819475.9,286047000.1,N
1662819495.8,286047000.9,N
1662819515.6,286046998.1,N
1662819535.4,286046999.8,N
1662819555.3,286047000.4,N
1662819575.1,286047000.0,N
1662819595.8,286046999.8,N
1662819615.7,286047000.3,N
1662819635.5,286047000.5,N
1662819655.4,286047000.6,N
1662819675.2,286047000.4,N
1662819695.0,286046998.9,N
1662819695.9,286046998.9,N
1662819715.8,286046998.8,N
1662819735.6,286046999.1,N
1662819755.5,286046996.9,Y
1662819775.3,286046997.0,P
1662819795.1,286046997.4,N
1662819815.9,286046999.2,N
1662819835.7,286046996.8,N
1662819855.5,286046996.9,N
1662819875.4,286046997.1,N
1662819895.2,286046997.9,N
1662819915.1,286046999.2,N
1662819916.0,286046999.2,N
1662819935.8,286046997.0,N
1662819955.6,286046996.5,Y
1662819975.5,286047000.5,P
1662819995.3,286046998.2,N
1662820015.1,286046999.9,N
1662820035.9,286047000.6,N
1662820055.7,286047000.3,N
1662820075.6,286047002.6,N
1662820095.4,286047002.5,N
1662820115.2,286047000.4,N
1662820135.1,286046998.4,N
1662820136.0,286046998.4,N
1662820155.8,286047000.7,N
1662820175.6,286046999.9,N
1662820195.5,286047002.0,N
1662820215.3,286047002.3,N
1662820235.2,286047002.7,N
1662820255.9,286047000.3,N
1662820275.7,286047000.0,N
1662820295.6,286047000.3,N
1662820315.4,286047002.7,N
1662820335.2,286047000.1,N
1662820355.1,286046998.5,N
1662820356.0,286046998.5,N
1662820375.8,286047001.1,N
1662820395.7,286046998.1,N
1662820415.5,286046998.9,N
1662820435.3,286046998.8,N
1662820455.2,286046998.1,N
1662820475.0,286046999.0,N
1662820475.9,286046999.0,N
1662820495.7,286046998.8,N
1662820515.6,286046998.6,N
1662820535.4,286047001.1,N
1662820555.3,286046998.5,N
1662820575.1,286047001.1,N
1662820576.0,286047001.1,N
1662820595.8,286046998.4,N
1662820615.7,286046999.4,N
1662820635.5,286046999.6,N
1662820655.3,286046999.4,N
1662820675.2,286046999.3,N
1662820695.0,286046998.3,N
1662820695.9,286046998.3,N
1662820715.8,286046998.3,N
1662820735.6,286046998.6,N
1662820755.4,286047000.5,N
1662820775.3,286046999.7,N
1662820795.1,286046999.9,N
1662820815.9,286047002.6,N
1662820835.7,286047002.4,N
1662820855.5,286047000.2,N
1662820875.4,286047002.4,N
1662820895.2,286046999.7,N
1662820915.0,286047002.2,N
1662820915.9,286047002.2,N
1662820935.8,286047002.5,N
1662820955.6,286047001.5,N
1662820975.5,286047001.8,N
1662820995.3,286047002.4,N
1662821015.1,286047002.2,N
1662821035.9,286047002.0,N
1662821055.7,286047001.5,N
1662821075.6,286047001.3,N
1662821095.4,286047004.0,N
1662821115.2,286047004.3,N
1662821135.1,286047003.5,N
1662821136.0,286047003.5,N
1662821155.8,286047004.1,N
1662821175.6,286047003.3,N
1662821195.5,286047003.5,N
1662821215.3,286047003.2,N
1662821235.2,286047001.4,N
1662821255.9,286047003.3,N
1662821275.7,286047002.9,N
1662821295.6,286047003.2,N
1662821315.4,286047006.0,Y
1662821335.3,286047001.8,P
1662821355.1,286047001.7,P
1662821356.0,286047001.7,P
1662821375.8,286047002.1,Y
1662821395.7,286046999.9,P
1662821415.5,286047000.9,N
1662821435.3,286047000.7,N
1662821455.2,286047000.7,N
1662821475.0,286046999.9,N
1662821475.9,286046999.9,N
1662821495.8,286047000.7,N
1662821515.6,286046998.5,N
1662821535.4,286047001.1,N
1662821555.3,286047000.7,N
1662821575.1,286046998.2,N
1662821595.8,286047000.7,N
1662821615.7,286047000.2,N
1662821635.5,286047000.1,N
1662821655.4,286047000.3,N
1662821675.2,286047000.1,N
1662821695.0,286047002.7,Y
1662821695.9,286047002.7,P
1662821715.8,286047000.3,N
1662821735.6,286047000.2,N
1662821755.5,286047002.5,N
1662821775.3,286047002.0,N
1662821795.1,286047002.1,N
1662821815.9,286047001.4,N
1662821835.7,286047002.0,N
1662821855.5,286047002.1,N
1662821875.4,286047001.3,N
1662821895.2,286047001.3,N
1662821915.1,286047002.1,N
1662821916.0,286047002.1,N
1662821935.8,286047002.6,Y
1662821955.6,286047000.2,P
1662821975.5,286047000.5,N
1662821995.3,286047000.0,N
